Temp
9 10 11 13 13 16 17 17 16 14 15 15 13 12 10 11 10 10 8 9 8 9 9 8 8 7 7 9 9 9 9 9 9 9 9 8 7 8 8 9 8 8 8 9
10 11 13 13 14 15 16 17 17 14 15 15 15 13 10 10 10 9 9 8 9 9 9 8 8 8 7 9 10 9 9 9 9 9 7 7 9 8 8 9 9 8 8 9
11 12 13 13 14 14 15 17 16 16 15 15 15 13 11 10 10 9 9 9 9 9 9 8 8 8 7 8 9 9 10 9 9 9 9 9 8 10 9 9 9 9 9 9
11 13 12 12 13 13 15 16 16 16 15 17 16 17 13 11 10 9 10 9 9 9 9 8 9 9 8 8 9 9 9 10 9 9 8 9 9 8 8 8 9 9 9 9
12 12 12 12 13 13 16 15 15 15 16 17 16 13 10 12 10 9 10 10 9 9 9 9 9 9 8 7 8 9 9 9 9 9 8 9 9 9 8 8 9 9 9 9
12 12 11 12 13 13 14 15 14 15 16 18 18 17 10 13 12 11 10 10 9 9 9 9 9 9 9 8 7 8 8 8 9 9 9 9 9 9 9 8 8 9 10 9
11 11 11 12 13 13 13 14 15 16 17 19 18 17 11 11 11 11 10 10 10 10 10 10 9 9 9 9 8 8 9 8 8 9 9 9 9 9 8 9 8 7 9 8
11 12 11 11 13 13 13 14 16 16 18 19 18 16 11 10 10 9 9 9 10 11 10 10 9 10 8 9 8 8 8 8 8 8 9 9 9 9 9 9 10 8 8 8
12 12 10 10 11 11 13 14 16 18 18 19 16 11 10 10 9 9 11 11 10 11 11 10 10 9 9 9 8 8 8 9 9 8 8 8 9 9 9 8 9 9 8 9
11 11 10 10 9 11 11 13 15 16 18 19 16 13 13 10 8 11 12 13 13 12 11 10 10 10 10 9 9 8 9 9 9 8 8 8 8 9 9 9 10 10 10 10
10 12 10 9 10 12 12 12 14 16 17 20 17 14 11 8 9 11 11 12 13 13 13 10 10 9 10 9 8 9 8 9 9 9 8 8 8 8 8 9 10 10 9 10
9 11 11 11 10 10 11 13 13 15 16 17 16 11 9 7 9 11 11 11 12 13 12 12 11 8 9 10 9 9 10 8 8 9 9 8 8 8 8 8 9 10 10 10
8 10 12 10 10 10 10 11 12 14 15 16 17 10 7 7 6 9 10 11 11 12 12 12 11 11 11 11 11 10 10 10 9 8 9 9 9 8 8 8 8 9 9 10
7 10 11 11 12 11 10 11 10 12 14 15 15 8 8 7 5 8 9 9 10 10 11 11 12 11 12 12 11 10 9 9 9 10 8 8 9 9 9 8 8 8 9 9
7 8 9 8 8 10 11 10 10 11 12 13 10 9 8 7 6 5 7 8 9 10 10 10 10 10 10 11 10 10 9 9 9 9 10 9 9 9 9 9 9 8 9 9
7 8 8 8 7 8 9 8 8 10 10 11 11 8 6 5 5 4 4 6 7 8 9 9 9 10 10 10 10 10 10 9 9 9 9 9 9 10 9 9 9 9 9 9
6 7 7 9 8 8 8 9 8 9 9 11 10 7 5 5 4 3 3 4 7 8 8 8 8 9 9 9 10 10 10 10 10 10 10 10 10 10 10 10 10 9 9 9
5 5 7 8 7 8 8 7 8 8 7 8 7 5 5 4 2 2 3 6 6 7 7 7 8 8 8 8 9 9 9 9 9 9 10 10 10 10 10 10 10 10 9 10
4 5 6 7 8 8 6 6 6 7 6 6 5 4 3 2 2 2 5 5 5 6 6 6 7 7 7 7 7 8 8 9 9 8 8 9 10 10 10 10 10 10 10 10
4 3 5 6 7 9 7 4 4 5 6 4 4 3 3 2 4 3 4 4 4 4 5 5 6 6 6 7 6 6 7 7 8 8 9 8 8 8 9 10 9 10 10 10
3 3 4 5 6 7 3 4 5 4 5 2 3 2 1 2 3 1 3 4 4 4 4 5 5 5 5 6 6 6 6 6 7 7 7 8 9 8 8 8 9 9 9 9
3 3 4 4 5 5 2 3 3 3 2 1 0 0 -0 2 2 2 3 3 4 4 4 5 5 5 5 5 5 6 6 6 6 6 6 6 7 8 8 8 9 9 9 9
2 3 3 4 3 2 2 1 1 0 0 2 1 2 2 2 2 2 2 2 3 3 4 4 4 4 4 5 5 5 5 5 6 6 6 6 6 6 7 7 8 8 9 9
1 0 1 1 1 0 -0 1 1 1 -0 2 2 2 1 1 2 1 2 2 2 3 3 3 4 4 4 4 4 4 5 4 4 5 5 5 5 6 6 6 6 7 7 8
0 -1 -1 -0 0 -1 -1 -0 1 1 1 1 1 1 1 1 1 1 1 2 2 2 2 2 3 3 3 4 4 4 4 4 4 4 4 5 5 4 5 6 5 5 6 7
-1 -1 -0 0 -1 -1 -0 -1 0 0 0 0 -0 -0 0 0 0 0 0 1 1 1 1 2 2 2 3 3 3 3 3 3 3 4 4 4 4 4 4 5 5 5 5 5
Height
3141 3147 3146 3150 3153 3154 3155 3155 3158 3158 3161 3167 3169 3171 3172 3174 3178 3181 3185 3189 3194 3198 3204 3205 3209 3210 3211 3212 3215 3217 3220 3222 3224 3227 3229 3231 3233 3234 3236 3236 3238 3239 3239 3240
3143 3142 3146 3150 3152 3153 3152 3152 3154 3158 3161 3166 3168 3171 3174 3177 3181 3182 3184 3188 3191 3197 3203 3204 3208 3210 3211 3211 3214 3216 3219 3222 3223 3225 3229 3235 3233 3235 3237 3238 3239 3239 3240 3241
3140 3142 3145 3147 3150 3153 3151 3148 3151 3158 3163 3165 3169 3171 3175 3176 3180 3182 3183 3187 3190 3197 3201 3202 3205 3208 3211 3210 3212 3216 3218 3221 3223 3224 3228 3232 3234 3235 3237 3238 3239 3240 3241 3241
3139 3141 3143 3146 3149 3151 3151 3151 3153 3159 3163 3160 3164 3163 3170 3172 3175 3179 3182 3185 3189 3193 3198 3201 3201 3206 3212 3210 3212 3214 3217 3220 3222 3225 3228 3231 3234 3238 3238 3239 3240 3240 3241 3242
3136 3138 3142 3145 3147 3150 3150 3152 3155 3159 3160 3158 3159 3165 3168 3168 3174 3177 3181 3184 3187 3191 3196 3197 3201 3204 3211 3211 3212 3214 3216 3219 3222 3224 3227 3230 3232 3235 3233 3239 3241 3240 3242 3243
3134 3138 3140 3143 3146 3149 3150 3151 3158 3160 3157 3151 3151 3154 3164 3165 3171 3176 3179 3182 3185 3187 3191 3196 3199 3202 3207 3212 3212 3213 3216 3219 3221 3224 3226 3228 3231 3234 3236 3237 3240 3240 3242 3243
3132 3134 3138 3141 3144 3148 3150 3153 3154 3155 3152 3145 3149 3153 3157 3163 3171 3175 3177 3181 3184 3186 3187 3191 3194 3199 3203 3210 3212 3213 3215 3218 3220 3223 3226 3228 3230 3233 3235 3238 3240 3239 3243 3244
3130 3134 3135 3139 3140 3144 3147 3148 3143 3144 3142 3143 3143 3151 3164 3168 3173 3174 3175 3178 3179 3185 3188 3186 3192 3193 3199 3205 3209 3212 3214 3217 3219 3222 3225 3227 3229 3231 3233 3236 3239 3241 3244 3247
3124 3129 3134 3136 3139 3142 3144 3142 3140 3138 3136 3136 3144 3160 3166 3169 3169 3165 3168 3170 3174 3180 3185 3185 3186 3188 3193 3196 3202 3206 3210 3215 3218 3221 3223 3226 3228 3230 3231 3234 3237 3239 3239 3239
3122 3126 3133 3137 3139 3140 3139 3145 3141 3139 3130 3129 3138 3154 3156 3166 3167 3165 3167 3168 3171 3173 3180 3177 3181 3183 3169 3183 3193 3199 3205 3211 3216 3220 3222 3224 3226 3228 3230 3232 3234 3237 3238 3241
3124 3124 3131 3135 3135 3139 3141 3140 3138 3137 3129 3123 3139 3150 3155 3161 3161 3164 3166 3167 3169 3170 3172 3171 3171 3178 3181 3189 3189 3191 3200 3206 3212 3216 3219 3222 3225 3227 3228 3230 3232 3234 3236 3239
3126 3124 3126 3131 3131 3133 3135 3138 3141 3137 3135 3129 3133 3156 3158 3159 3161 3163 3165 3166 3167 3169 3169 3169 3170 3157 3136 3178 3183 3169 3192 3204 3208 3213 3216 3219 3222 3224 3226 3227 3229 3231 3233 3235
3128 3125 3123 3131 3134 3135 3136 3139 3139 3139 3135 3133 3129 3151 3157 3161 3162 3161 3163 3165 3166 3167 3168 3169 3171 3172 3171 3175 3177 3174 3186 3189 3206 3209 3211 3215 3218 3221 3223 3226 3227 3228 3229 3231
3126 3124 3123 3127 3123 3129 3134 3137 3141 3140 3140 3137 3133 3146 3155 3160 3158 3159 3162 3164 3165 3166 3167 3168 3167 3168 3168 3168 3173 3179 3185 3190 3194 3198 3207 3210 3213 3217 3220 3222 3223 3225 3227 3228
3129 3128 3128 3130 3130 3128 3131 3136 3139 3141 3141 3141 3144 3149 3152 3156 3160 3159 3161 3163 3164 3166 3167 3168 3169 3170 3171 3173 3178 3182 3187 3189 3193 3196 3198 3202 3206 3212 3214 3217 3219 3221 3223 3225
3129 3129 3130 3131 3132 3133 3135 3137 3138 3139 3140 3144 3144 3150 3152 3155 3158 3162 3163 3162 3164 3166 3167 3169 3170 3171 3173 3175 3178 3180 3182 3186 3189 3192 3194 3196 3198 3201 3206 3211 3214 3216 3218 3220
3128 3128 3131 3128 3130 3132 3134 3134 3137 3139 3141 3144 3143 3149 3152 3157 3158 3160 3161 3160 3162 3164 3166 3168 3169 3171 3173 3174 3176 3177 3178 3180 3184 3187 3189 3192 3195 3198 3200 3203 3206 3209 3212 3214
3126 3127 3129 3128 3130 3129 3128 3127 3133 3137 3141 3143 3143 3145 3151 3155 3154 3153 3155 3157 3160 3161 3164 3165 3167 3169 3170 3172 3173 3174 3176 3176 3177 3179 3182 3186 3190 3193 3195 3198 3200 3202 3204 3206
3123 3125 3126 3125 3125 3127 3125 3126 3131 3135 3140 3142 3144 3145 3147 3149 3151 3150 3151 3154 3157 3158 3160 3162 3163 3165 3166 3168 3169 3171 3172 3173 3174 3175 3176 3178 3181 3184 3185 3189 3191 3195 3197 3198
3121 3122 3125 3124 3123 3120 3123 3123 3126 3132 3135 3136 3141 3143 3145 3147 3152 3149 3146 3148 3151 3154 3155 3157 3159 3160 3161 3163 3164 3166 3167 3168 3170 3171 3172 3172 3174 3176 3179 3181 3183 3185 3187 3190
3118 3119 3121 3121 3122 3122 3120 3121 3125 3132 3134 3130 3136 3139 3141 3147 3143 3138 3144 3145 3146 3147 3149 3151 3153 3154 3155 3157 3159 3160 3162 3163 3164 3165 3166 3167 3168 3169 3171 3173 3176 3178 3179 3181
3116 3118 3118 3120 3119 3121 3118 3121 3127 3124 3123 3126 3129 3130 3132 3134 3136 3135 3138 3139 3141 3141 3141 3142 3144 3146 3148 3150 3151 3153 3154 3155 3157 3159 3160 3161 3161 3162 3163 3165 3166 3169 3171 3172
3116 3117 3115 3118 3116 3113 3116 3119 3118 3121 3121 3123 3125 3126 3128 3131 3132 3132 3134 3134 3134 3135 3135 3135 3136 3137 3138 3139 3141 3144 3146 3147 3148 3150 3151 3153 3154 3155 3156 3156 3157 3159 3160 3162
3111 3111 3112 3113 3114 3112 3113 3113 3114 3116 3117 3119 3121 3122 3123 3124 3125 3125 3126 3127 3128 3129 3130 3130 3130 3130 3130 3129 3130 3132 3134 3137 3138 3139 3141 3143 3144 3146 3148 3148 3149 3150 3151 3152
3109 3107 3108 3110 3111 3111 3109 3110 3111 3112 3114 3115 3116 3117 3119 3120 3120 3121 3121 3121 3123 3123 3123 3124 3124 3125 3124 3124 3123 3122 3121 3123 3125 3128 3131 3133 3134 3135 3135 3139 3139 3141 3142 3142
3104 3104 3103 3104 3106 3107 3109 3106 3107 3109 3110 3112 3112 3113 3114 3115 3115 3116 3115 3116 3116 3116 3115 3116 3116 3116 3116 3116 3116 3115 3113 3113 3112 3113 3118 3120 3122 3123 3124 3126 3128 3129 3132 3134
Wind_Speed
19 20 25 23 25 21 19 18 17 19 16 13 13 13 15 20 13 17 24 27 26 22 21 18 17 17 19 21 20 19 17 14 12 11 12 10 10 6 4 8 4 4 4 5
17 24 19 18 22 20 18 24 20 13 15 11 10 15 11 18 16 12 21 22 27 22 22 21 20 16 17 21 21 20 18 16 15 13 14 10 5 4 4 4 3 4 3 4
20 16 17 20 22 22 19 22 19 14 11 10 14 17 13 17 14 16 12 17 22 24 25 24 21 18 15 19 22 20 19 17 18 16 13 14 15 9 6 5 3 4 3 4
19 11 20 21 22 24 23 20 18 21 18 18 21 14 19 19 14 14 15 21 20 27 27 25 26 21 15 15 19 20 19 19 19 16 13 13 10 4 4 6 7 3 3 2
21 19 21 23 23 23 20 19 14 18 21 15 24 13 9 20 14 14 11 15 17 21 26 25 24 23 19 18 20 20 19 19 18 17 19 15 11 11 11 8 9 4 4 3
13 19 19 21 20 22 9 23 18 15 20 19 18 16 20 20 12 15 12 12 14 19 21 28 27 22 23 20 20 22 21 19 17 15 15 14 15 12 9 10 7 7 5 3
12 19 19 20 21 21 14 20 19 14 18 12 22 11 8 10 13 11 10 10 15 17 20 20 28 26 24 25 22 22 23 21 18 16 15 14 14 17 17 12 9 9 2 5
18 20 20 23 23 21 23 29 22 13 14 18 15 14 15 13 12 10 14 7 13 18 23 21 19 33 28 28 26 24 24 22 20 17 15 14 14 14 15 13 13 12 14 9
21 16 18 18 18 13 26 30 30 19 23 21 19 14 16 13 11 8 11 13 11 18 22 22 27 30 27 33 30 29 24 22 21 19 16 14 13 13 13 13 15 11 17 8
5 17 16 16 15 17 12 26 28 19 14 16 22 23 18 15 7 10 10 11 13 21 25 16 26 28 39 31 30 26 26 23 20 20 19 16 13 13 13 14 13 15 16 17
6 6 14 12 20 23 18 17 25 21 24 12 13 13 19 16 13 13 11 10 10 12 29 32 35 32 27 25 28 26 25 26 24 23 22 20 18 15 14 14 15 15 15 14
8 9 13 19 14 14 12 19 23 22 24 22 7 15 13 15 14 14 13 11 9 11 18 21 20 14 15 35 24 40 26 24 26 27 26 24 23 22 19 16 15 16 16 16
9 11 12 10 10 18 17 18 14 24 22 16 21 18 15 18 15 15 14 13 11 10 14 23 19 21 16 20 23 28 29 27 24 28 29 28 26 24 22 20 18 17 18 18
9 10 11 6 5 19 24 18 16 15 19 15 11 31 22 16 14 18 16 15 14 12 11 12 17 16 19 21 24 29 29 37 33 28 28 31 30 26 24 25 23 21 21 21
6 9 5 2 3 5 14 15 15 20 21 13 18 22 25 21 14 13 14 13 12 11 11 8 7 10 19 24 23 26 32 33 35 38 27 28 34 31 30 29 29 25 27 25
9 10 9 10 4 3 7 9 7 11 13 11 16 21 20 18 18 15 10 10 11 9 9 7 5 4 3 3 11 22 30 29 32 35 40 38 34 37 36 31 32 30 32 27
9 11 12 17 8 8 14 16 12 10 11 16 20 21 17 16 15 13 11 12 12 12 11 9 8 6 5 5 5 5 5 21 31 37 37 38 38 37 37 36 35 35 32 33
9 11 12 15 9 12 6 10 14 15 12 9 13 18 18 17 15 16 17 16 16 15 14 13 12 11 11 10 9 9 8 7 10 18 30 37 36 37 36 37 37 37 38 36
13 13 15 19 15 7 6 7 13 19 15 14 15 17 17 14 13 11 15 17 18 18 19 19 18 17 17 16 14 14 14 14 13 12 17 25 41 41 40 39 41 42 41 42
9 13 15 13 15 14 12 13 12 15 19 20 16 16 14 13 10 18 22 16 16 17 19 20 21 23 23 22 21 19 19 19 19 19 17 19 27 36 37 40 37 36 38 38
12 12 16 16 13 10 7 10 8 14 10 17 16 16 14 11 20 24 25 24 24 23 22 21 22 22 24 25 27 28 26 26 23 23 23 22 22 23 34 36 37 37 34 35
10 9 13 16 16 15 10 8 10 13 10 14 15 16 14 23 27 27 24 25 23 24 26 27 26 27 27 27 27 29 32 34 32 30 28 26 26 26 25 29 36 39 40 39
9 10 9 8 7 12 9 6 15 11 11 14 12 15 16 18 21 24 23 26 26 27 28 29 30 30 31 32 32 31 31 32 36 38 36 34 32 29 29 29 28 30 37 47
11 11 9 7 11 7 11 15 16 15 14 14 13 12 10 10 10 12 12 15 17 18 19 21 24 27 30 33 34 36 36 36 36 37 40 40 38 36 34 32 31 32 31 33
9 9 10 12 10 9 12 14 15 16 15 15 15 14 13 11 11 12 14 16 17 18 20 22 23 24 26 28 30 33 37 40 41 41 39 40 43 42 41 39 36 32 30 31
11 11 13 10 9 16 9 17 18 17 16 15 15 14 13 12 12 13 15 16 18 20 19 21 24 25 26 29 31 31 33 35 39 43 43 43 43 45 47 46 45 44 39 34
Wind_Direction
188 187 201 205 202 204 214 212 220 205 164 177 168 139 174 171 154 172 180 184 182 182 187 190 185 189 192 197 195 192 193 185 176 168 162 148 124 129 139 141 156 119 129 130
193 207 208 201 204 220 223 209 187 181 168 183 152 147 164 163 171 177 179 186 184 181 190 192 187 191 191 203 199 199 197 191 184 173 166 168 174 149 163 160 162 135 164 129
201 211 198 198 197 202 211 204 171 187 185 196 171 148 162 165 171 173 187 185 191 183 191 199 192 195 197 208 205 200 200 197 185 177 170 163 182 150 183 139 133 135 147 123
206 199 197 195 197 195 202 202 185 207 192 193 190 165 176 178 181 193 185 193 184 182 206 209 198 185 194 201 189 192 189 189 186 180 176 173 178 141 140 192 152 214 145 139
202 200 199 199 199 196 206 196 188 193 208 202 196 147 261 160 186 187 195 198 199 189 200 214 217 197 182 201 186 181 178 178 182 180 177 186 173 223 132 238 224 200 167 143
206 206 203 196 193 198 217 189 197 208 223 238 219 198 189 165 172 186 203 217 205 214 200 198 212 216 187 208 198 188 180 175 179 184 186 187 178 171 201 205 222 186 165 185
195 196 193 196 193 197 190 187 194 210 218 226 215 177 141 100 141 146 174 213 213 219 223 211 208 201 207 199 204 208 190 179 176 181 188 191 188 185 193 206 188 135 255 298
189 186 189 196 198 197 200 198 198 193 206 208 210 146 133 138 132 141 172 186 195 221 202 223 213 198 205 198 210 209 205 186 183 183 185 195 199 197 196 198 191 188 183 212
185 179 186 191 207 207 201 220 209 259 209 210 150 99 125 138 133 187 182 182 157 170 215 211 200 206 211 197 210 208 209 205 198 192 190 195 205 209 208 204 213 194 221 218
264 147 197 215 210 209 218 208 231 237 249 213 140 162 165 162 152 159 172 182 197 179 176 213 214 217 213 200 207 211 211 214 213 212 202 202 204 212 218 220 229 235 217 208
194 192 187 204 203 205 217 220 227 225 251 213 154 124 145 160 167 168 167 177 188 194 192 206 213 211 194 206 202 207 210 212 214 218 215 213 214 217 220 225 229 235 241 232
224 230 172 201 195 210 209 215 214 234 229 261 338 107 155 141 167 177 159 157 171 177 195 207 206 258 164 178 198 192 196 218 222 220 224 221 221 223 223 222 226 232 236 241
196 226 153 196 222 216 212 213 227 227 251 260 250 148 163 141 142 161 159 152 147 158 185 199 216 214 199 206 209 191 199 192 211 231 225 226 225 227 230 231 231 233 237 240
187 245 221 2 169 207 206 217 222 230 233 235 225 146 156 154 138 154 149 142 138 146 163 201 229 225 217 228 225 219 200 208 201 203 218 233 225 231 232 233 235 240 241 242
207 239 229 188 54 133 186 208 220 225 231 292 137 152 156 151 141 152 160 156 158 149 144 144 159 205 220 230 229 228 224 214 218 207 199 213 231 234 237 235 233 241 244 245
221 241 219 219 239 191 204 207 208 211 220 216 155 138 147 150 151 146 138 166 172 172 172 175 177 178 169 182 232 238 228 224 226 226 226 221 227 224 227 237 242 247 244 253
212 226 225 237 223 249 243 227 221 212 201 215 177 171 166 159 155 151 155 179 192 196 196 196 201 216 232 242 256 262 245 229 233 232 232 229 234 236 237 238 236 243 242 250
221 216 227 242 223 242 218 190 206 206 194 165 149 155 161 169 173 178 185 201 210 216 218 222 226 238 247 249 252 260 262 257 251 243 240 234 237 239 241 242 242 242 244 247
221 222 231 242 225 218 211 206 191 195 194 185 180 165 171 168 177 214 220 223 228 232 236 237 241 243 246 251 253 251 252 255 258 255 242 238 232 238 239 245 250 248 247 247
210 208 221 216 246 236 110 168 176 188 204 192 188 184 184 184 194 216 242 240 244 240 242 243 245 246 249 250 252 251 253 254 254 254 251 245 241 240 243 246 241 241 243 245
201 207 219 222 225 228 185 221 233 198 171 180 182 188 184 174 197 212 233 248 254 261 260 256 254 254 254 254 254 253 252 252 254 257 256 251 251 249 242 240 241 242 242 246
202 205 219 227 225 230 196 233 191 203 183 170 179 195 193 200 214 231 238 249 257 263 269 271 269 267 266 262 257 256 255 254 253 251 255 258 255 255 253 248 248 247 246 246
220 218 233 220 213 197 215 181 203 185 204 205 216 237 242 246 244 249 249 255 258 263 266 272 275 276 274 271 267 263 259 256 255 253 252 253 256 256 256 256 259 255 251 248
236 241 205 235 233 208 208 226 220 217 224 242 233 229 228 232 235 251 251 252 256 260 265 269 274 276 278 279 278 274 268 263 259 256 252 250 251 252 254 254 255 257 257 254
219 238 225 228 232 216 220 220 223 219 227 235 237 240 239 242 245 253 262 266 271 271 273 274 275 279 283 285 284 280 278 272 265 261 257 254 250 250 250 250 252 252 254 256
231 246 241 244 241 239 247 239 237 239 244 245 253 252 254 256 260 266 269 273 271 271 277 280 281 281 282 283 283 287 288 282 277 270 262 258 254 252 250 249 252 252 250 252